Flag for U.S.A. Weather past 2 weeks in Hayward, California, U.S.A.

Now
53 °F

Mostly cloudy.


Feels Like: 48 °F
Forecast: 51 / 62 °F
Wind: 17 mph from Northwest

Location: Hayward Air Terminal

Current Time: Apr 25, 2015 at 9:45:25 AM

Latest Report: Apr 25, 2015 at 8:54 AM


Visibility: 10 mi

Pressure: 29.98 "Hg

Humidity: 93%

Dew point: 51 °F

Location of HaywardLocation

Historic Weather in Hayward — Graph

°F

Hayward temperature yesterday

Maximum temperature yesterday: 63 °F (at 1:54 PM)
Minimum temperature yesterday: 53 °F (at 6:54 AM)
Average temperature yesterday: 57 °F

Past Weeks' High & Low Weather Summary

 TemperatureHumidityPressure
High81 °F (Apr 16, 3:54 PM)97% (Apr 25, 3:54 AM)30.37 "Hg (Apr 25, 3:54 AM)
Low47 °F (Apr 15, 5:54 AM)14% (Apr 16, 3:54 PM)29.86 "Hg (Apr 21, 6:04 AM)
Average58 °F66%30.03 "Hg
* Reported Apr 10 8:54 AM — Apr 25 8:54 AM, Hayward, Weather by CustomWeather, © 2015

Note: Actual official high and low records may vary slightly from our data, if they occured in-between our weather recording intervals... More about our weather records

Advertising

Hayward weather history for previous 24 hours

 ConditionsComfort  
Time TempWeatherWind HumidityBarometerVisibility
8:54 AM
Sat, Apr 25
53 °FMostly cloudy.17 mph93%29.98 "Hg10 mi
7:54 AM55 °FMostly cloudy.8 mph83%29.96 "Hg10 mi
6:54 AM54 °FOvercast.13 mph90%29.95 "Hg10 mi
5:54 AM55 °FPassing clouds.10 mph90%29.94 "Hg10 mi
4:54 AM56 °FMostly cloudy.14 mph93%29.92 "Hg10 mi
3:54 AM56 °FLight rain. Fog.13 mph97%29.93 "Hg5 mi
2:49 AM57 °FLight rain. Mostly cloudy.12 mph93%29.93 "Hg7 mi
2:02 AM57 °FRain. Fog.12 mph94%29.92 "Hg4 mi
1:54 AM57 °FRain. Fog.12 mph93%29.95 "Hg2 mi
1:04 AM57 °FLight rain. Fog.15 mph94%29.94 "Hg6 mi
12:54 AM58 °FLight rain. Mostly cloudy.14 mph87%29.97 "Hg8 mi
11:54 PM
Fri, Apr 24
57 °FLight rain. Overcast.10 mph87%29.99 "Hg10 mi
10:54 PM57 °FOvercast.10 mph78%30.02 "Hg10 mi
9:54 PM57 °FMostly cloudy.6 mph69%30.04 "Hg10 mi
8:54 PM57 °FMostly cloudy.8 mph67%30.05 "Hg10 mi
7:54 PM56 °FMostly cloudy.12 mph70%30.06 "Hg10 mi
6:54 PM57 °FSunny.N/A67%30.05 "Hg10 mi
5:54 PM58 °FSunny.10 mph58%30.05 "Hg10 mi
3:54 PM60 °FSunny.15 mph53%30.05 "Hg10 mi
2:54 PM61 °FSunny.17 mph50%30.06 "Hg10 mi
1:54 PM63 °FSunny.17 mph50%30.06 "Hg10 mi
12:54 PM62 °FSunny.21 mph50%30.06 "Hg10 mi
11:54 AM62 °FSunny.20 mph56%30.06 "Hg10 mi
10:54 AM59 °FSunny.16 mph64%30.05 "Hg10 mi
9:54 AM59 °FSunny.14 mph62%30.03 "Hg10 mi
Weather by CustomWeather, © 2015

See weather overviewHow to use our weather pages